This is the latest recevied weather packets stored in our database for station/object KD7ECD. If no packets are shown the sender has not sent any weather packets the latest 10 day(s).
| Time | Temp. | Humidity | Pressure | Rain* | Wind** | Luminosity | Snow |
|---|---|---|---|---|---|---|---|
| 1777445473 | 10° C | 87% | 1021.6 hPa | 0 mm | - | 0 W/m² | - |
| 1777444872 | 9.44° C | 87% | 1021.9 hPa | 0 mm | - | 0 W/m² | - |
| 1777444270 | 10° C | 87% | 1021.8 hPa | 0 mm | - | 0 W/m² | - |
| 1777443668 | 10° C | 88% | 1021.7 hPa | 0 mm | - | 0 W/m² | - |
| 1777443066 | 10° C | 89% | 1021.8 hPa | 0 mm | - | 0 W/m² | - |
| 1777442464 | 9.44° C | 88% | 1021.7 hPa | 0 mm | - | 0 W/m² | - |
| 1777441862 | 10° C | 88% | 1021.8 hPa | 0 mm | - | 0 W/m² | - |
| 1777441260 | 10° C | 88% | 1021.9 hPa | 0 mm | - | 0 W/m² | - |
| 1777440657 | 10° C | 88% | 1021.7 hPa | 0 mm | - | 0 W/m² | - |
| 1777440056 | 10.56° C | 88% | 1021.5 hPa | 0 mm | - | 0 W/m² | - |
| 1777439453 | 10.56° C | 87% | 1021.6 hPa | 0 mm | - | 0 W/m² | - |
| 1777438851 | 10.56° C | 87% | 1021.7 hPa | 0 mm | - | 0 W/m² | - |
| 1777438250 | 10.56° C | 86% | 1021.6 hPa | 0 mm | - | 0 W/m² | - |
| 1777437648 | 11.11° C | 85% | 1021.9 hPa | 0 mm | - | 0 W/m² | - |
| 1777437046 | 11.67° C | 84% | 1021.5 hPa | 0 mm | - | 0 W/m² | - |
| 1777436445 | 11.67° C | 83% | 1021.4 hPa | 0 mm | - | 0 W/m² | - |
| 1777435844 | 12.22° C | 82% | 1021.5 hPa | 0 mm | - | 0 W/m² | - |
| 1777435242 | 12.22° C | 82% | 1021.2 hPa | 0 mm | - | 0 W/m² | - |
| 1777434637 | 12.78° C | 80% | 1021.3 hPa | 0 mm | - | 0 W/m² | - |
| 1777434036 | 13.33° C | 78% | 1021 hPa | 0 mm | - | 0 W/m² | - |
| 1777433434 | 13.89° C | 75% | 1021 hPa | 0 mm | - | 0 W/m² | - |
| 1777432832 | 15° C | 72% | 1020.6 hPa | 0 mm | - | 0 W/m² | - |
| 1777432229 | 15.56° C | 70% | 1020.8 hPa | 0 mm | - | 0 W/m² | - |
| 1777431626 | 16.11° C | 69% | 1020.5 hPa | 0 mm | - | 0 W/m² | - |
| 1777431023 | 16.67° C | 68% | 1020.4 hPa | 0 mm | - | 4 W/m² | - |
* Rain latest hour (hover to see other rain measurements)
** Current wind speed in m/s (hover to see current wind gust speed)